Time,TemperatureF,DewpointF,PressureIn,WindDirection,WindDirectionDegrees,WindSpeedMPH,WindSpeedGustMPH,Humidity,HourlyPrecipIn,Conditions,Clouds,dailyrainin,SoftwareType,DateUTC
2013-01-09 00:15:00,63.2,62.0,30.27,NE,56,0.0,5.0,96,0.00,CLR,,0.00,WeatherDisplay:10.37,2013-01-09 05:15:00,
2013-01-09 00:30:00,62.8,61.6,30.27,NNE,32,0.0,3.0,96,0.00,CLR,,0.00,WeatherDisplay:10.37,2013-01-09 05:30:00,
2013-01-09 00:45:00,62.2,61.1,30.27,NE,41,0.0,0.0,96,0.00,CLR,,0.00,WeatherDisplay:10.37,2013-01-09 05:45:00,
2013-01-09 01:00:00,62.0,61.1,30.28,NE,41,0.0,0.0,97,0.00,CLR,,0.00,WeatherDisplay:10.37,2013-01-09 06:00:00,
2013-01-09 01:15:00,62.1,61.3,30.28,NE,44,1.0,3.0,97,0.00,CLR,,0.00,WeatherDisplay:10.37,2013-01-09 06:15:00,
2013-01-09 01:30:00,62.2,61.4,30.28,NE,43,0.0,1.0,97,0.00,CLR,,0.00,WeatherDisplay:10.37,2013-01-09 06:30:00,
2013-01-09 01:45:00,62.2,61.3,30.27,NE,42,0.0,2.0,97,0.00,CLR,,0.00,WeatherDisplay:10.37,2013-01-09 06:45:00,
2013-01-09 02:00:00,62.3,61.4,30.27,NE,42,0.0,0.0,97,0.00,CLR,,0.00,WeatherDisplay:10.37,2013-01-09 07:00:00,
2013-01-09 02:15:00,62.3,61.7,30.27,NE,42,0.0,0.0,98,0.00,CLR,,0.00,WeatherDisplay:10.37,2013-01-09 07:15:00,
2013-01-09 02:30:00,62.5,61.9,30.27,NE,42,0.0,1.0,98,0.00,CLR,,0.00,WeatherDisplay:10.37,2013-01-09 07:30:00,
2013-01-09 02:45:00,62.6,62.0,30.27,NNE,28,0.0,3.0,98,0.00,CLR,,0.00,WeatherDisplay:10.37,2013-01-09 07:45:00,
2013-01-09 03:00:00,62.7,62.2,30.27,NE,46,0.0,2.0,98,0.00,CLR,,0.00,WeatherDisplay:10.37,2013-01-09 08:00:00,
2013-01-09 03:15:00,62.9,62.3,30.26,NE,47,0.0,1.0,98,0.00,CLR,,0.00,WeatherDisplay:10.37,2013-01-09 08:15:00,
2013-01-09 03:30:00,63.1,62.5,30.26,ENE,69,0.0,4.0,98,0.00,CLR,,0.00,WeatherDisplay:10.37,2013-01-09 08:30:00,
2013-01-09 03:45:00,63.2,62.6,30.26,ENE,60,0.0,3.0,98,0.00,CLR,,0.00,WeatherDisplay:10.37,2013-01-09 08:45:00,
2013-01-09 04:00:00,63.1,62.5,30.26,NE,56,0.0,3.0,98,0.00,CLR,,0.00,WeatherDisplay:10.37,2013-01-09 09:00:00,
2013-01-09 04:15:00,63.0,62.4,30.26,NE,56,0.0,2.0,98,0.00,CLR,,0.00,WeatherDisplay:10.37,2013-01-09 09:15:00,
2013-01-09 04:30:00,63.0,62.4,30.26,NE,56,0.0,0.0,98,0.00,CLR,,0.00,WeatherDisplay:10.37,2013-01-09 09:30:00,
2013-01-09 04:45:00,63.0,62.7,30.26,NE,56,0.0,0.0,99,0.00,CLR,,0.00,WeatherDisplay:10.37,2013-01-09 09:45:00,
2013-01-09 05:00:00,63.0,62.7,30.26,NE,56,0.0,0.0,99,0.00,CLR,,0.00,WeatherDisplay:10.37,2013-01-09 10:00:00,
2013-01-09 05:15:00,63.2,62.9,30.26,NE,56,0.0,2.0,99,0.00,CLR,,0.00,WeatherDisplay:10.37,2013-01-09 10:15:00,
2013-01-09 05:30:00,63.3,63.0,30.27,NE,56,0.0,0.0,99,0.00,CLR,,0.00,WeatherDisplay:10.37,2013-01-09 10:30:00,
2013-01-09 05:45:00,63.5,63.2,30.27,NE,56,0.0,0.0,99,0.00,CLR,,0.00,WeatherDisplay:10.37,2013-01-09 10:45:00,
2013-01-09 06:00:00,63.8,63.6,30.27,NE,41,0.0,3.0,99,0.00,CLR,,0.00,WeatherDisplay:10.37,2013-01-09 11:00:00,
2013-01-09 06:15:00,64.2,63.9,30.27,NE,45,0.0,2.0,99,0.00,CLR,,0.00,WeatherDisplay:10.37,2013-01-09 11:15:00,
2013-01-09 06:30:00,64.3,64.0,30.28,NE,49,0.0,1.0,99,0.00,CLR,,0.00,WeatherDisplay:10.37,2013-01-09 11:30:00,
2013-01-09 06:45:00,64.3,64.0,30.28,NE,55,0.0,1.0,99,0.00,CLR,,0.00,WeatherDisplay:10.37,2013-01-09 11:45:00,
2013-01-09 07:00:00,64.3,64.0,30.29,ENE,76,0.0,2.0,99,0.00,CLR,,0.00,WeatherDisplay:10.37,2013-01-09 12:00:00,
2013-01-09 07:15:00,64.2,63.9,30.30,NE,39,0.0,4.0,99,0.00,CLR,,0.00,WeatherDisplay:10.37,2013-01-09 12:15:00,
2013-01-09 07:30:00,64.2,63.9,30.31,ENE,60,0.0,3.0,99,0.00,CLR,,0.00,WeatherDisplay:10.37,2013-01-09 12:30:00,
2013-01-09 07:45:00,64.3,64.0,30.31,NNE,31,0.0,0.0,99,0.00,CLR,,0.00,WeatherDisplay:10.37,2013-01-09 12:45:00,
2013-01-09 08:00:00,64.5,64.2,30.32,ENE,59,0.0,0.0,99,0.00,CLR,,0.00,WeatherDisplay:10.37,2013-01-09 13:00:00,
2013-01-09 08:15:00,64.7,64.4,30.33,ENE,61,0.0,1.0,99,0.00,CLR,,0.00,WeatherDisplay:10.37,2013-01-09 13:15:00,
2013-01-09 08:30:00,64.9,64.6,30.33,ENE,61,0.0,1.0,99,0.00,CLR,,0.00,WeatherDisplay:10.37,2013-01-09 13:30:00,
2013-01-09 08:45:00,65.1,64.8,30.33,ENE,61,0.0,1.0,99,0.00,CLR,,0.00,WeatherDisplay:10.37,2013-01-09 13:45:00,
2013-01-09 09:00:00,65.3,65.0,30.34,ENE,61,0.0,3.0,99,0.00,CLR,,0.00,WeatherDisplay:10.37,2013-01-09 14:00:00,
2013-01-09 09:15:00,65.7,65.4,30.34,ENE,59,0.0,3.0,99,0.00,CLR,,0.00,WeatherDisplay:10.37,2013-01-09 14:15:00,
2013-01-09 09:30:00,66.2,65.9,30.35,NE,55,1.0,3.0,99,0.00,CLR,,0.00,WeatherDisplay:10.37,2013-01-09 14:30:00,
2013-01-09 09:45:00,66.8,66.5,30.35,NE,44,0.0,4.0,99,0.00,CLR,,0.00,WeatherDisplay:10.37,2013-01-09 14:45:00,
2013-01-09 10:00:00,67.3,67.0,30.35,North,4,1.0,5.0,99,0.00,CLR,,0.00,WeatherDisplay:10.37,2013-01-09 15:00:00,
2013-01-09 10:15:00,67.8,67.5,30.36,North,3,0.0,4.0,99,0.00,CLR,,0.00,WeatherDisplay:10.37,2013-01-09 15:15:00,
2013-01-09 10:30:00,68.3,68.0,30.35,North,7,0.0,4.0,99,0.00,CLR,,0.00,WeatherDisplay:10.37,2013-01-09 15:30:00,
2013-01-09 10:45:00,68.5,68.2,30.36,NNE,31,0.0,1.0,99,0.00,CLR,,0.00,WeatherDisplay:10.37,2013-01-09 15:45:00,
2013-01-09 11:00:00,69.2,68.9,30.35,ESE,116,0.0,3.0,99,0.00,CLR,,0.00,WeatherDisplay:10.37,2013-01-09 16:00:00,
2013-01-09 11:15:00,69.8,69.8,30.35,ESE,113,1.0,4.0,100,0.00,CLR,,0.00,WeatherDisplay:10.37,2013-01-09 16:15:00,
2013-01-09 11:30:00,70.7,69.8,30.34,ENE,66,1.0,4.0,97,0.00,CLR,,0.00,WeatherDisplay:10.37,2013-01-09 16:30:00,
2013-01-09 11:45:00,71.3,69.8,30.34,ENE,69,1.0,7.0,95,0.00,CLR,,0.00,WeatherDisplay:10.37,2013-01-09 16:45:00,
2013-01-09 12:00:00,72.8,70.7,30.33,ENE,73,0.0,6.0,93,0.00,CLR,,0.00,WeatherDisplay:10.37,2013-01-09 17:00:00,
2013-01-09 12:15:00,74.6,71.1,30.32,NE,45,1.0,7.0,89,0.00,CLR,,0.00,WeatherDisplay:10.37,2013-01-09 17:15:00,
2013-01-09 12:30:00,75.4,71.9,30.32,East,93,1.0,7.0,89,0.00,CLR,,0.00,WeatherDisplay:10.37,2013-01-09 17:30:00,
2013-01-09 12:45:00,75.9,71.8,30.31,NE,44,1.0,6.0,87,0.00,CLR,,0.00,WeatherDisplay:10.37,2013-01-09 17:45:00,
2013-01-09 13:00:00,77.0,72.2,30.31,ESE,117,0.0,4.0,85,0.00,CLR,,0.00,WeatherDisplay:10.37,2013-01-09 18:00:00,
2013-01-09 13:15:00,78.2,72.6,30.30,ESE,103,1.0,5.0,83,0.00,CLR,,0.00,WeatherDisplay:10.37,2013-01-09 18:15:00,
2013-01-09 13:30:00,79.3,72.6,30.29,ESE,116,0.0,6.0,80,0.00,CLR,,0.00,WeatherDisplay:10.37,2013-01-09 18:30:00,
2013-01-09 13:45:00,79.3,72.6,30.29,East,86,1.0,4.0,80,0.00,CLR,,0.00,WeatherDisplay:10.37,2013-01-09 18:45:00,
2013-01-09 14:00:00,79.1,71.3,30.29,SE,126,1.0,4.0,77,0.00,CLR,,0.00,WeatherDisplay:10.37,2013-01-09 19:00:00,
2013-01-09 14:15:00,79.1,71.3,30.28,ENE,77,0.0,5.0,77,0.00,CLR,,0.00,WeatherDisplay:10.37,2013-01-09 19:15:00,
2013-01-09 14:30:00,79.8,71.5,30.29,SE,124,0.0,5.0,76,0.00,CLR,,0.00,WeatherDisplay:10.37,2013-01-09 19:30:00,
2013-01-09 14:45:00,79.8,70.8,30.29,South,177,0.0,7.0,74,0.00,CLR,,0.00,WeatherDisplay:10.37,2013-01-09 19:45:00,
2013-01-09 15:00:00,80.1,71.1,30.29,SSE,161,0.0,5.0,74,0.00,CLR,,0.00,WeatherDisplay:10.37,2013-01-09 20:00:00,
2013-01-09 15:15:00,79.7,71.1,30.29,ESE,113,1.0,3.0,75,0.00,CLR,,0.00,WeatherDisplay:10.37,2013-01-09 20:15:00,
2013-01-09 15:30:00,79.1,70.9,30.29,East,100,0.0,3.0,76,0.00,CLR,,0.00,WeatherDisplay:10.37,2013-01-09 20:30:00,
2013-01-09 15:45:00,78.5,72.1,30.30,East,79,1.0,7.0,81,0.00,CLR,,0.00,WeatherDisplay:10.37,2013-01-09 20:45:00,
2013-01-09 16:00:00,77.2,72.3,30.30,ENE,62,1.0,5.0,85,0.00,CLR,,0.00,WeatherDisplay:10.37,2013-01-09 21:00:00,
2013-01-09 16:15:00,76.9,71.7,30.30,East,80,2.0,7.0,84,0.00,CLR,,0.00,WeatherDisplay:10.37,2013-01-09 21:15:00,
2013-01-09 16:30:00,76.8,71.6,30.30,ENE,76,1.0,8.0,84,0.00,CLR,,0.00,WeatherDisplay:10.37,2013-01-09 21:30:00,
2013-01-09 16:45:00,76.5,71.6,30.30,East,84,0.0,7.0,85,0.00,CLR,,0.00,WeatherDisplay:10.37,2013-01-09 21:45:00,
2013-01-09 17:00:00,76.0,71.5,30.30,East,87,1.0,6.0,86,0.00,CLR,,0.00,WeatherDisplay:10.37,2013-01-09 22:00:00,
2013-01-09 17:15:00,75.4,71.3,30.30,East,97,1.0,9.0,87,0.00,CLR,,0.00,WeatherDisplay:10.37,2013-01-09 22:15:00,
2013-01-09 17:30:00,74.8,71.0,30.31,ENE,70,3.0,7.0,88,0.00,CLR,,0.00,WeatherDisplay:10.37,2013-01-09 22:30:00,
2013-01-09 17:45:00,74.0,70.6,30.31,ENE,61,5.0,9.0,89,0.00,CLR,,0.00,WeatherDisplay:10.37,2013-01-09 22:45:00,
2013-01-09 18:00:00,73.4,70.3,30.32,ENE,76,1.0,7.0,90,0.00,CLR,,0.00,WeatherDisplay:10.37,2013-01-09 23:00:00,
2013-01-09 18:15:00,72.9,69.8,30.32,East,88,0.0,9.0,90,0.00,CLR,,0.00,WeatherDisplay:10.37,2013-01-09 23:15:00,
2013-01-09 18:30:00,72.6,69.8,30.33,ENE,72,1.0,5.0,91,0.00,CLR,,0.00,WeatherDisplay:10.37,2013-01-09 23:30:00,
2013-01-09 18:45:00,72.3,69.8,30.33,ENE,64,2.0,6.0,92,0.00,CLR,,0.00,WeatherDisplay:10.37,2013-01-09 23:45:00,
2013-01-09 19:00:00,71.9,69.4,30.33,ENE,62,3.0,8.0,92,0.00,CLR,,0.00,WeatherDisplay:10.37,2013-01-10 00:00:00,
2013-01-09 19:15:00,71.6,69.2,30.33,ENE,68,2.0,7.0,92,0.00,CLR,,0.00,WeatherDisplay:10.37,2013-01-10 00:15:00,
2013-01-09 19:30:00,71.4,69.3,30.33,ENE,66,1.0,7.0,93,0.00,CLR,,0.00,WeatherDisplay:10.37,2013-01-10 00:30:00,
2013-01-09 19:45:00,71.2,69.1,30.34,East,80,0.0,7.0,93,0.00,CLR,,0.00,WeatherDisplay:10.37,2013-01-10 00:45:00,
2013-01-09 20:00:00,71.1,69.0,30.34,ENE,57,0.0,6.0,93,0.00,CLR,,0.00,WeatherDisplay:10.37,2013-01-10 01:00:00,
2013-01-09 20:15:00,70.9,68.8,30.35,North,9,0.0,4.0,93,0.00,CLR,,0.00,WeatherDisplay:10.37,2013-01-10 01:15:00,
2013-01-09 20:30:00,70.5,68.1,30.35,East,82,0.0,6.0,92,0.00,CLR,,0.00,WeatherDisplay:10.37,2013-01-10 01:30:00,
2013-01-09 20:45:00,70.1,68.0,30.36,ENE,68,0.0,8.0,93,0.00,CLR,,0.00,WeatherDisplay:10.37,2013-01-10 01:45:00,
2013-01-09 21:00:00,69.8,67.7,30.36,NE,47,0.0,6.0,93,0.00,CLR,,0.00,WeatherDisplay:10.37,2013-01-10 02:00:00,
2013-01-09 21:15:00,69.3,67.5,30.36,NE,56,0.0,6.0,94,0.00,CLR,,0.00,WeatherDisplay:10.37,2013-01-10 02:15:00,
2013-01-09 21:30:00,68.8,67.0,30.36,East,82,0.0,5.0,94,0.00,CLR,,0.00,WeatherDisplay:10.37,2013-01-10 02:30:00,
2013-01-09 21:45:00,68.5,66.7,30.36,ENE,73,0.0,7.0,94,0.00,CLR,,0.00,WeatherDisplay:10.37,2013-01-10 02:45:00,
2013-01-09 22:00:00,68.3,66.9,30.36,ENE,65,3.0,6.0,95,0.00,CLR,,0.00,WeatherDisplay:10.37,2013-01-10 03:00:00,
2013-01-09 22:15:00,68.2,66.7,30.36,ENE,72,1.0,5.0,95,0.00,CLR,,0.00,WeatherDisplay:10.37,2013-01-10 03:15:00,
2013-01-09 22:30:00,68.1,66.6,30.37,ENE,73,0.0,7.0,95,0.00,CLR,,0.00,WeatherDisplay:10.37,2013-01-10 03:30:00,
2013-01-09 22:45:00,68.0,66.5,30.37,East,84,0.0,3.0,95,0.00,CLR,,0.00,WeatherDisplay:10.37,2013-01-10 03:45:00,
2013-01-09 23:00:00,67.9,66.7,30.37,East,79,1.0,3.0,96,0.00,CLR,,0.00,WeatherDisplay:10.37,2013-01-10 04:00:00,
2013-01-09 23:15:00,67.9,66.7,30.37,ENE,61,0.0,3.0,96,0.00,CLR,,0.00,WeatherDisplay:10.37,2013-01-10 04:15:00,
2013-01-09 23:30:00,67.8,66.6,30.37,ENE,59,0.0,3.0,96,0.00,CLR,,0.00,WeatherDisplay:10.37,2013-01-10 04:30:00,
2013-01-09 23:45:00,67.6,66.4,30.37,ENE,59,0.0,0.0,96,0.00,CLR,,0.00,WeatherDisplay:10.37,2013-01-10 04:45:00,